Погода в Екатерининке

Россия / Свердловская область     60°25′10″N   60°25′48″E
темп.,
°C
ветер,
м/с
пор.,
м/с
влажн.,
%
обл.,
%
осадки,
мм/ч
давл.,
гПа
погр.,
м
2 декабря, чт
чт223:00−8с3796100 0.9 994180
02:00−8сз3696100 6.6 991211
05:00−10ссз2595100 7.9 990192
08:00−10с2396100 0.3 990128
11:00−9с1195100 0.4 99090
14:00−6з0194100 0.1 99178
17:00−5з269198 0.1 992223
20:00−10зюз229640 0.1 99443
3 декабря, пт
пт323:00−14зюз229834 0.1 99542
02:00−11юз259472 0.0 994131
05:00−8зюз3688100 0.0 994210
08:00−13зюз2494100 0.0 99694
11:00−13зюз379445 0.0 997178
14:00−9зюз268847 0.0 998166
17:00−14з129521 0.0 100123
20:00−14з39925 0.0 1003249
4 декабря, сб
сб423:00−15з37925 0.0 1006151
02:00−19зюз22985 0.0 101026
05:00−20юз2198100 0.0 101211
08:00−16юз1195100 0.0 101320
11:00−13з0189100 0.0 101537
14:00−11св2495100 0.2 1014205
17:00−11ссв3696100 2.4 1012288
20:00−13с4895100 2.4 1010360
5 декабря, вс
вс523:00−15ссз4995100 3.8 1010331
02:00−16ссз3895100 0.4 1010281
05:00−17ссз3895100 0.6 1011272
08:00−17с4895100 0.2 1012350
11:00−18с3796100 0.4 1015327
14:00−19с3795100 0.2 1015387
17:00−20с3896100 0.3 1016393
20:00−21с389595 0.1 1018376
6 декабря, пн
пн623:00−21ссз3797100 0.2 1018360
02:00−21ссз2798100 0.4 1020340
05:00−21ссз269775 0.6 1021315
08:00−27зсз1110041 0.0 10229
11:00−27з11995 0.0 102418
14:00−21зюз11965 0.0 102421
17:00−26з21985 0.0 102513
20:00−21з28935 0.0 1026103